LexMAWeather

Lexington, Massachusetts, USA

69°F
7/18/2018 4:16am 
  • Lexington Conditions: Few Clouds
  • Temperature: 69.4°F / 20.8°C 
  • Dew Point: 68.5°F 
  • Humidity: 97
  • Wind: Calm, 10-min avg: Calm, gust: None
  • Barometer: 29.74 inRising 0.03  inHg/hr Rising Slowly
  • Visibility: 10 miles
  • Rain Today: 0.00 in
  •   

Regional Weather Roundup
for Boston, MA

        
982 
ASUS41 KBOX 180810
RWRBOX

REGIONAL WEATHER ROUNDUP
NATIONAL WEATHER SERVICE BOSTON/NORTON MA
400 AM EDT WED JUL 18 2018

NOTE:  "FAIR" INDICATES FEW OR NO CLOUDS BELOW 12,000 FEET WITH NO 
SIGNIFICANT WEATHER AND/OR OBSTRUCTIONS TO VISIBILITY.

MAZALL-180900-
EASTERN MASSACHUSETTS
  
CITY           SKY/WX    TMP DP  RH WIND       PRES   REMARKS
BOSTON         CLOUDY    73  69  87 NW8       29.77R                  
BEVERLY        FAIR      69  69 100 NW7       29.77S                  
LAWRENCE       FAIR      72  67  84 CALM      29.79F                  
BEDFORD        FAIR      69  67  93 CALM      29.76S                  
BLUE HILL        N/A     68  68 100 NW7       29.78R                  
NORWOOD        FAIR      72  70  93 NW3       29.77R                  
MARSHFIELD     FAIR      70  70 100 CALM      29.74F                  
PLYMOUTH       CLOUDY    70  69  97 SW5       29.78R                  
TAUNTON        FAIR      71  69  93 CALM      29.77R                  
NEW BEDFORD    CLOUDY    70  70 100 SW5       29.77S                  
$$

MAZALL-180900-
CAPE COD AND THE ISLANDS
  
CITY           SKY/WX    TMP DP  RH WIND       PRES   REMARKS
FALMOUTH       CLOUDY    70  70 100 SW6       29.78F                  
HYANNIS        CLOUDY    72  70  93 SW3       29.76F                  
CHATHAM        CLOUDY    72  70  93 SW3       29.78S                  
PROVINCETOWN   CLOUDY    69  68  96 SW3       29.78S                  
NANTUCKET      CLOUDY    68  68 100 S6        29.78F                  
MARTHAS VNYRD  CLOUDY    69  69 100 SW3       29.77F FOG              
$$
 
MAZALL-180900-
CENTRAL AND WESTERN MASSACHUSETTS
  
CITY           SKY/WX    TMP DP  RH WIND       PRES   REMARKS
WORCESTER      NOT AVBL                                               
FITCHBURG      FAIR      69  69 100 NW5       29.80R                  
ORANGE         FAIR      69  67  93 CALM      29.82S                  
SPRINGFIELD    CLOUDY    68  64  87 CALM      29.80R                  
WESTFIELD      CLOUDY    68  65  90 NW3       29.81R                  
NORTH ADAMS    FOG       60  59  96 W3        29.85S VSB 1/4          
PITTSFIELD       N/A    N/A N/A N/A MISG      29.85R                  
$$
 
RIZALL-180900-
RHODE ISLAND
  
CITY           SKY/WX    TMP DP  RH WIND       PRES   REMARKS
PROVIDENCE     FAIR      71  70  96 CALM      29.79R                  
NEWPORT        CLOUDY    70  69  97 CALM      29.78R FOG              
BLOCK ISLAND   CLOUDY    69  69 100 W7        29.79S                  
SMITHFIELD     FAIR      69  68  96 NW3       29.80R                  
WESTERLY       FAIR      71  71 100 CALM      29.79R                  
$$
 
CTZALL-180900-
CONNECTICUT
  
CITY           SKY/WX    TMP DP  RH WIND       PRES   REMARKS
BRADLEY INTL   MOCLDY    68  65  90 N6        29.80R                  
HARTFORD       CLOUDY    71  64  78 NW3       29.80R                  
BRIDGEPORT     CLOUDY    72  65  78 NW8       29.80S                  
DANBURY        FAIR      65  65 100 CALM      29.85R                  
GROTON         CLOUDY    71  69  93 CALM      29.77R                  
NEW HAVEN      MOCLDY    71  65  81 N6        29.80R                  
CHESTER        CLOUDY    70  68  94 NW7       29.81R                  
MERIDEN        CLOUDY    68  66  93 CALM      29.81R                  
WILLIMANTIC    CLOUDY    72  68  87 CALM      29.80R                  
OXFORD         LGT RAIN  66  64  93 NW6       29.83S                  
$$

MEZ002-015-021-024-NHZ003-005-008-011-012-014-VTZ005-008-180900-
NORTHERN NEW ENGLAND
  
CITY           SKY/WX    TMP DP  RH WIND       PRES   REMARKS
PORTLAND ME    MOCLDY    66  66 100 CALM      29.79R                  
BANGOR ME      CLOUDY    67  66  97 SW5       29.73R                  
CONCORD NH     FAIR      68  65  90 VRB5      29.80S                  
MANCHESTER NH  MOCLDY    70  67  90 NW8       29.78S                  
NASHUA NH      MOCLDY    69  69 100 NW3       29.79R                  
PORTSMOUTH NH  FOG       68  68 100 NE5       29.76S VSB 3/8          
JAFFREY NH     FAIR      68  66  93 N3        29.83R                  
KEENE NH       FAIR      67  66  97 N5        29.83R                  
BURLINGTON VT  FAIR      66  53  63 N7        29.90R                  
MT. WASHINGTON FOG       45  45 100 NW45G53     N/A  VSB 0            
$$

NYZ052-076-180900-
EASTERN NEW YORK
  
CITY           SKY/WX    TMP DP  RH WIND       PRES   REMARKS
ALBANY         FAIR      66  57  72 N7        29.85R                  
NEW YORK CITY  MOCLDY    74  61  63 NW14      29.82R                  
$$
 
ANZALL-180900-
MARINE OBSERVATIONS
  
STATION/POSITION TIME  TEMP    WIND        PRES    VSBY  WAVE
                       AIR SEA DIR/SP/G                  HT/PER
                 (UTC) (F)     (DEG/KT/KT) (MB)    (MI)  (FT/S)
BOSTON BUOY      0750   68 69  110/  6/  8 1006.6F         2/ 9
BUZZARDS BAY     0700   69     220/  9/ 10 1008.8F
NANTUCKET SOUND  0750   70     220/  8/ 12 1007.8F         1/ 7
MASS BAY-STELLWA 0704   66 64  260/  4/  4 1006.6R         2/ 8
ISLE OF SHOALS   0700   69     160/  5/  6 1007.9R
S OF BLOCK IS    0743      71                N/A           4/ 7
$$

......................KEY.........................
  SKY/WX - SKY CONDITION/PRESENT WEATHER
  TMP    - TEMPERATURE IN FAHRENHEIT
  DWPT   - DEWPOINT IN FAHRENHEIT
  RH     - RELATIVE HUMIDITY IN PERCENT
  WIND   - DIRECTION AND SPEED IN MPH
  PRES   - MEAN SEA LEVEL PRESSURE IN INCHES OF HG
  WCI    - WIND CHILL INDEX
  VSB    - VISIBILITY IN MILES
  HX     - HEAT INDEX
  TC     - TEMPERATURE IN CELSIUS
  VRB    - VARIABLE WIND DIRECTION
  N/A    - NOT AVAILABLE